This demonstration page uses our WeatherBlox Daily Observations layout. Learn more.

Left ArrowRight Arrow

53.62937, 11.41316

Hourly Observations for April 17, 2015

Temp ( °F °C ) Dew Point ( °F °C ) Humidity (%) Winds ( mph kmh ) Pressure ( in mb ) Visibility ( mi km ) Precip ( " mm )
6:20 am 06:20 Partly Cloudy with Mist and Fog 32 0 32 0 100 100 W 3 6 29.94 1014 1 2 N/A
6:50 am 06:50 Partly Cloudy 32 0 30 -1 93 93 W 3 6 29.94 1014 5 8 N/A
7:20 am 07:20 Partly Cloudy 36 2 34 1 93 93 WSW 7 11 29.94 1014 4 7 N/A
7:50 am 07:50 Mostly Cloudy 37 3 37 3 100 100 W 6 9 29.94 1014 30 48 N/A
8:20 am 08:20 Partly Cloudy 39 4 37 3 93 93 W 8 13 29.94 1014 30 48 N/A
8:50 am 08:50 Partly Cloudy 41 5 39 4 93 93 W 8 13 29.94 1014 30 48 N/A
9:20 am 09:20 Mostly Cloudy 43 6 39 4 87 87 W 10 17 29.94 1014 30 48 N/A
9:50 am 09:50 Mostly Cloudy 45 7 37 3 76 76 W 9 15 29.97 1015 30 48 N/A
10:20 am 10:20 Mostly Cloudy 45 7 34 1 66 66 WNW 10 17 29.94 1014 30 48 N/A
10:50 am 10:50 Mostly Cloudy 46 8 34 1 62 62 NW 9 15 29.97 1015 30 48 N/A
11:20 am 11:20 Mostly Cloudy 46 8 34 1 62 62 NW 12 19 29.97 1015 30 48 N/A
11:50 am 11:50 Mostly Cloudy 46 8 34 1 62 62 NW 9 15 29.97 1015 30 48 N/A
12:20 pm 12:20 Mostly Cloudy 48 9 36 2 62 62 NW 10 17 29.97 1015 30 48 N/A
12:50 pm 12:50 Mostly Cloudy 50 10 34 1 54 54 NW 12 19 29.97 1015 30 48 N/A
1:20 pm 13:20 Partly Cloudy 52 11 34 1 50 50 NNW 9 15 29.97 1015 30 48 N/A
1:50 pm 13:50 Partly Cloudy 52 11 34 1 50 50 NNW 12 19 29.97 1015 30 48 N/A
2:20 pm 14:20 Partly Cloudy 52 11 32 0 47 47 NNW 10 17 29.97 1015 30 48 N/A
2:50 pm 14:50 Mostly Sunny 54 12 28 -2 38 38 NNW 12 19 30.00 1016 7 11 N/A
3:20 pm 15:20 Mostly Sunny 52 11 25 -4 35 35 NW 15 24 30.00 1016 7 11 N/A
3:50 pm 15:50 Mostly Sunny 52 11 27 -3 38 38 NW 15 24 30.00 1016 7 11 N/A
4:20 pm 16:20 Mostly Sunny 52 11 30 -1 44 44 NNW 15 24 30.00 1016 7 11 N/A
4:50 pm 16:50 Mostly Sunny 54 12 32 0 44 44 NNW 13 20 30.00 1016 7 11 N/A
5:20 pm 17:20 Mostly Sunny 52 11 32 0 47 47 NNW 16 26 30.00 1016 7 11 N/A
5:50 pm 17:50 Partly Cloudy 50 10 32 0 50 50 NW 15 24 30.00 1016 30 48 N/A
6:20 pm 18:20 Partly Cloudy 50 10 32 0 50 50 NW 10 17 30.03 1017 30 48 N/A
6:50 pm 18:50 Mostly Sunny 50 10 32 0 50 50 NNW 13 20 30.03 1017 7 11 N/A

Powered by AerisWeather